SCP
0 0 0 0 0 0 0 0 0 0 0 0 0 0 0 0 0 0 0 0 0 -0 0 0 0 0 0 -0 0 0 -0 0 -0 0 0 0 0 0 0 -0 0 0 0 0 0 0 0 0 0 0 0 0 0 1
0 0 0 0 0 0 0 0 0 0 0 0 0 0 0 0 0 0 0 0 0 0 0 0 0 0 0 0 0 0 0 0 0 0 0 0 0 0 0 0 0 0 0 0 0 0 0 0 0 0 0 0 0 0
0 0 0 0 0 0 0 0 0 0 0 0 0 0 0 0 0 0 0 0 0 0 0 0 0 0 0 0 0 0 0 0 0 0 0 0 0 0 0 0 0 0 0 0 0 0 0 0 0 0 0 0 1 1
0 0 0 -0 0 0 0 0 0 0 0 0 0 0 0 0 0 0 0 0 0 0 -0 0 0 0 0 0 0 0 0 0 0 0 -0 -0 0 0 0 0 0 0 0 0 0 0 0 0 0 0 0 0 0 1
-0 0 0 -0 0 0 0 0 0 0 0 0 0 0 0 0 0 0 0 0 0 0 -0 0 0 0 0 0 0 0 0 -0 0 0 0 0 0 0 0 0 0 0 0 0 0 0 0 0 0 0 0 0 0 0
0 0 -0 0 0 0 0 0 0 0 0 0 0 0 0 0 0 0 0 0 0 0 0 0 0 0 0 0 0 0 0 0 0 -0 0 0 0 0 0 0 0 -0 0 0 0 0 0 0 0 0 0 0 0 0
0 0 0 0 0 0 0 0 0 0 0 0 0 0 0 0 0 0 0 0 0 0 0 0 0 0 -0 0 0 0 0 0 0 0 -0 0 0 0 -0 -0 0 0 0 0 0 0 0 0 0 0 0 0 0 0
0 0 0 0 0 0 0 0 0 0 0 0 0 0 0 0 0 0 0 0 0 0 0 0 0 0 0 -0 -0 0 0 0 0 -0 -0 -0 0 0 -0 -0 0 0 0 0 0 0 0 0 0 0 0 0 0 0
0 0 0 0 0 0 0 0 0 0 0 0 0 0 0 0 0 0 0 0 0 0 0 0 0 0 0 0 0 0 -0 -0 0 -0 -0 -0 0 0 0 -0 0 0 0 0 0 0 0 0 0 0 0 0 0 0
0 0 0 0 0 0 0 0 0 0 0 0 0 0 0 0 0 0 0 0 0 0 0 0 0 0 -0 0 -0 0 0 -0 -0 0 0 0 -0 -0 0 -0 0 0 0 0 0 0 0 0 0 0 0 0 0 0
0 0 0 0 0 0 0 0 0 0 0 0 0 0 0 0 0 0 0 0 0 0 0 0 0 0 0 0 0 0 0 0 -0 0 -0 -0 -0 -0 -0 0 0 0 0 0 0 0 0 0 0 0 0 0 0 0
0 0 0 -0 0 0 0 0 0 0 0 0 0 0 0 0 0 0 0 0 0 0 0 0 0 0 0 0 0 0 -0 0 -0 0 -0 -0 -0 -0 -0 -0 0 0 0 0 0 0 0 0 0 0 0 0 0 0
0 0 0 0 0 0 0 0 0 0 0 0 0 0 0 0 0 0 0 0 0 0 0 0 0 0 0 0 0 0 0 -0 0 0 0 -0 -0 -0 -0 0 -0 0 0 0 0 0 0 0 0 0 0 0 0 0
0 0 0 -0 0 0 0 0 0 0 0 0 0 0 0 0 0 0 0 0 0 0 0 0 0 0 0 0 0 0 0 0 0 0 0 0 0 0 0 0 -0 0 0 0 0 0 0 0 0 0 0 0 0 0
0 0 -0 0 0 0 0 0 0 0 0 0 0 0 0 0 0 0 0 0 0 0 0 0 0 0 0 0 0 0 0 0 0 0 0 0 0 0 0 0 0 0 0 0 0 0 0 0 0 0 0 0 0 0
0 0 0 0 0 0 0 0 0 0 0 0 0 0 0 0 0 0 0 0 0 0 0 0 0 0 0 0 0 0 0 0 0 0 0 0 0 0 0 0 0 0 0 0 0 0 0 0 0 0 0 0 0 0
0 0 0 0 0 0 0 0 0 0 0 0 0 -0 0 0 0 0 0 0 0 0 0 0 0 0 0 0 0 0 0 0 0 0 0 0 0 0 0 0 0 0 0 0 0 0 0 0 0 0 0 0 0 0
0 0 0 0 0 0 0 0 0 0 0 0 0 0 0 0 0 0 0 0 0 0 0 0 0 0 0 0 0 0 0 0 0 0 0 0 0 0 0 0 0 0 0 0 0 0 0 0 0 0 0 0 0 0
0 0 0 0 0 0 0 0 0 0 0 0 0 0 0 0 0 0 0 0 0 0 0 0 0 0 0 0 0 0 0 0 0 0 0 0 0 0 0 0 0 0 0 0 0 0 0 0 0 0 0 0 0 0
0 0 0 0 0 0 0 0 0 0 0 0 0 0 0 0 0 0 0 0 0 0 0 0 0 0 0 0 0 0 0 0 0 0 0 0 0 0 0 0 0 0 0 0 0 0 0 0 0 -0 0 0 0 0
0 0 0 0 0 0 0 0 0 0 0 0 0 0 0 0 0 0 0 0 0 0 0 0 0 0 0 0 0 0 0 0 0 0 0 0 0 0 0 0 0 0 0 0 0 0 -0 0 0 0 0 0 0 0
0 0 0 0 0 0 0 0 0 0 0 0 0 0 0 0 0 0 0 0 0 0 0 0 0 0 0 0 0 0 0 0 0 0 0 0 0 0 0 0 0 0 0 0 0 0 0 0 0 0 0 0 0 0
0 0 0 0 0 0 0 0 0 0 0 0 0 0 0 0 0 0 0 0 0 0 0 0 0 0 0 0 0 0 0 0 0 0 0 0 0 0 0 -0 0 0 0 0 0 0 0 0 0 0 0 0 0 0
0 0 0 0 0 0 0 0 0 0 0 0 0 0 0 0 0 0 0 0 0 0 0 0 0 0 0 0 0 0 0 0 0 0 0 0 0 0 0 0 0 0 -0 0 0 0 0 0 0 0 -0 0 0 0
0 0 0 0 0 0 0 0 0 -0 -0 0 0 0 0 0 0 0 0 0 0 0 0 0 0 0 0 0 0 0 0 0 0 0 0 0 0 0 0 0 0 -0 -0 0 0 0 0 0 0 0 0 0 0 0
0 0 0 0 0 0 0 0 0 -0 -0 0 0 0 0 0 0 0 0 0 0 0 0 0 0 0 -0 -0 -0 0 0 0 0 0 0 0 0 0 0 0 -0 0 0 0 0 -0 0 0 0 0 0 0 0 0
0 0 0 0 0 0 0 0 0 0 0 0 0 0 0 0 0 0 0 0 0 0 0 0 0 0 0 0 0 0 0 0 0 0 0 0 -0 0 0 0 0 0 0 -0 0 0 0 0 0 0 0 0 0 0
0 0 0 0 0 0 0 0 0 0 0 0 0 0 0 0 0 0 0 0 0 0 0 0 0 0 0 0 0 0 0 0 0 -0 -0 -0 0 0 0 0 0 0 0 0 -0 0 0 0 0 0 0 0 0 0
0 0 0 0 0 0 0 0 0 0 0 0 0 0 0 0 0 0 0 -0 0 -0 0 0 0 0 0 0 0 0 0 -0 0 -0 0 0 -0 0 0 0 0 0 0 0 0 0 0 0 0 -0 0 0 0 0
0 0 0 0 0 0 0 -0 -0 0 0 0 0 0 0 0 -0 -0 -0 0 0 0 0 0 0 -0 0 -0 0 0 0 0 0 0 0 0 0 0 0 0 0 0 0 0 0 0 0 0 0 0 0 0 -0 0
0 0 0 0 0 0 0 0 0 0 0 -0 -0 -0 -0 -0 0 0 0 0 0 -0 -0 0 0 0 0 0 0 0 -0 0 0 -0 -0 -0 0 0 0 0 0 0 0 0 0 0 0 0 0 0 0 0 0 0
0 0 0 0 0 0 0 0 0 0 0 0 0 0 0 -0 -0 0 0 -0 0 0 0 -0 0 0 0 0 0 0 0 -0 0 -0 0 0 -0 0 0 0 0 0 0 0 0 0 0 0 0 0 0 0 0 0
0 0 0 0 0 0 0 0 0 0 0 0 0 0 0 -0 0 0 0 -0 -0 0 0 0 0 0 0 0 0 0 0 0 0 0 0 0 -0 0 -0 0 0 0 0 0 0 0 0 0 0 0 -0 0 0 0
Wind_Speed_500mb
41 44 46 48 51 53 51 41 33 27 23 22 25 24 21 18 14 14 4 10 9 23 11 10 4 5 10 10 11 15 15 14 12 6 6 5 10 3 13 20 9 6 8 15 15 8 16 22 5 5 11 14 18 21
42 46 49 51 53 53 42 36 29 24 24 23 23 28 25 21 18 16 7 10 14 11 13 11 8 6 2 4 15 4 16 5 14 4 2 5 7 7 11 11 8 11 10 8 16 7 8 18 21 16 17 14 16 13
42 45 49 53 50 45 40 35 32 26 26 25 21 30 29 24 22 25 12 11 9 19 14 20 21 9 3 3 6 23 5 5 6 11 20 5 3 5 8 10 7 9 5 12 3 15 9 6 12 15 19 21 16 8
40 45 48 47 43 42 43 38 35 32 31 30 21 32 31 25 24 23 15 13 14 17 23 28 17 12 5 2 3 7 7 8 9 12 19 11 6 4 9 8 7 9 7 9 14 14 10 8 7 10 13 15 15 11
40 44 44 41 43 50 43 34 30 30 26 33 26 34 32 27 24 22 19 16 18 11 9 28 19 12 10 6 2 2 3 8 13 17 12 10 7 5 18 9 11 18 13 13 4 10 8 9 3 2 6 9 10 8
41 41 39 38 45 39 33 29 25 23 24 27 34 36 32 26 24 16 13 20 17 13 15 6 15 17 14 9 7 5 3 4 8 11 2 3 3 8 7 7 7 18 5 11 5 6 2 3 3 2 1 2 5 9
37 36 35 33 32 30 27 17 14 12 17 29 38 37 30 29 32 21 4 13 31 22 13 7 13 19 21 16 15 12 5 5 13 3 8 8 9 9 8 13 12 8 9 10 12 10 12 14 13 6 8 5 6 7
32 33 30 26 23 22 19 15 2 10 23 38 38 31 27 23 25 13 11 13 30 20 24 8 6 16 27 26 22 9 17 8 12 10 4 13 9 5 6 17 15 12 13 14 14 13 14 7 9 11 9 12 14 13
28 30 29 20 17 14 10 5 10 24 33 35 31 27 22 19 18 16 12 19 27 15 12 17 13 9 27 32 8 9 8 9 5 10 6 4 6 7 15 17 14 15 14 11 15 12 12 14 16 15 17 16 21 19
23 25 25 17 13 11 4 4 16 26 31 34 36 13 14 23 12 12 7 15 17 23 17 14 30 9 25 24 19 11 4 9 5 6 3 9 13 34 17 15 13 17 16 11 10 11 12 14 15 16 16 18 18 23
17 21 23 18 12 10 7 12 20 26 30 30 9 5 7 24 17 13 13 16 20 13 25 32 28 15 13 12 6 2 6 1 5 5 6 6 9 18 20 23 19 21 20 15 10 9 9 11 10 12 15 15 17 23
16 15 18 19 14 14 16 17 25 30 16 11 7 10 15 14 13 11 11 12 11 18 17 35 28 21 18 12 9 11 7 5 9 9 7 6 10 13 17 23 24 23 22 18 13 9 9 8 8 10 9 9 11 16
15 15 16 15 14 19 25 22 26 24 18 24 6 8 6 5 1 13 20 13 13 15 19 30 26 19 10 22 11 9 8 10 4 7 6 12 27 22 22 23 26 26 23 18 15 12 12 11 9 12 11 10 13 15
17 16 16 16 16 18 26 27 28 30 32 7 11 3 7 9 12 13 17 21 22 25 32 33 34 22 19 15 10 10 8 1 8 9 13 10 27 21 23 25 28 29 26 23 20 16 15 15 16 14 14 17 15 14
17 15 14 16 19 25 29 19 20 30 20 13 16 12 18 32 24 24 24 5 22 22 36 37 27 18 13 8 7 9 10 9 9 10 10 19 22 12 21 27 29 29 29 27 24 21 19 18 16 15 14 14 14 13
15 12 13 10 13 25 12 17 19 14 5 10 17 12 25 23 19 23 22 25 26 30 38 36 11 9 10 8 12 14 9 8 10 9 2 21 15 12 20 26 27 28 30 30 27 23 23 22 19 16 16 15 14 12
15 8 5 11 12 19 23 7 9 9 13 12 14 22 31 15 11 18 31 27 30 31 16 15 14 12 10 10 13 11 19 13 7 4 6 13 10 15 24 28 28 29 32 32 30 26 25 25 20 15 17 16 13 15
19 15 13 11 18 24 16 7 5 8 12 18 18 18 9 11 5 13 12 23 33 35 33 11 2 11 11 18 12 2 9 13 9 8 7 4 8 18 25 27 27 30 34 35 32 28 27 28 22 20 18 21 18 14
17 24 22 20 11 12 10 14 16 10 20 29 23 15 11 12 16 5 12 11 28 18 17 5 5 15 15 18 11 14 15 12 12 6 9 14 23 30 34 27 28 30 33 36 36 34 31 29 25 28 30 32 19 22
16 11 23 31 14 7 8 9 15 13 9 17 26 23 16 18 21 25 21 20 26 24 18 15 18 24 8 11 14 12 18 10 9 16 17 18 22 32 34 32 29 30 32 33 35 35 33 33 28 29 25 25 21 19
11 7 11 18 15 14 8 6 13 15 14 20 15 23 18 20 21 26 29 27 25 30 26 37 38 34 35 23 13 14 22 25 25 30 29 28 28 30 32 32 30 33 33 31 31 32 33 30 26 27 26 24 19 18
16 15 12 16 12 11 13 15 8 9 11 21 11 15 17 23 21 33 33 20 30 31 31 31 33 37 29 22 22 18 22 23 27 27 22 23 28 35 39 36 38 38 34 30 29 30 32 31 29 30 27 23 20 16
16 16 9 14 11 10 12 15 9 13 8 10 13 8 13 16 12 8 14 27 38 39 31 31 19 18 25 32 30 30 29 26 26 28 26 26 26 22 24 35 34 31 31 31 29 31 33 32 29 25 23 21 20 20
19 7 9 12 17 9 12 11 13 15 11 13 9 11 12 17 18 14 16 33 34 27 23 17 24 29 32 29 27 32 31 17 18 16 15 17 18 13 21 27 24 33 37 33 31 31 29 30 28 24 28 25 24 23
6 10 9 10 12 10 9 12 23 13 16 16 14 11 7 6 9 13 11 18 23 9 9 14 15 18 24 25 24 16 10 13 17 21 20 18 11 20 32 36 31 41 40 36 36 35 34 30 27 26 29 28 27 25
8 13 10 15 12 11 9 6 9 16 17 10 9 4 6 7 8 7 2 6 6 2 7 9 10 10 12 12 8 3 4 8 13 13 10 15 17 24 26 28 35 32 30 35 32 38 36 34 33 31 33 30 30 28
8 12 16 14 9 8 13 15 12 3 4 8 6 7 9 10 8 5 7 6 9 2 5 7 8 7 4 3 2 4 4 6 7 8 10 8 9 12 14 17 24 15 27 39 41 35 36 45 47 42 38 34 33 30
13 8 14 18 20 21 13 5 5 2 5 4 7 5 4 2 6 7 5 5 3 3 3 6 6 3 4 3 5 5 3 11 19 18 8 7 8 9 11 10 12 17 9 25 28 17 19 4 22 20 31 31 29 29
17 16 17 15 14 13 12 6 5 5 12 4 2 5 10 13 10 4 3 4 1 1 6 9 12 16 14 12 11 12 15 14 7 7 5 4 10 14 10 8 4 14 18 19 24 33 27 27 29 34 30 30 30 31
20 18 16 16 17 12 13 12 19 30 22 19 7 10 8 7 6 6 5 5 5 9 11 13 12 10 10 10 14 8 5 4 7 7 5 18 15 10 7 5 4 6 8 11 12 19 28 29 31 27 18 29 35 34
8 16 16 13 10 22 16 12 16 13 15 21 17 12 12 11 10 11 12 11 14 13 9 8 9 7 5 6 14 10 1 4 4 2 4 4 7 8 5 1 3 4 7 7 9 12 14 26 32 31 36 38 33 34
16 13 13 11 19 20 15 23 25 24 15 7 7 11 13 11 11 12 7 6 9 9 8 6 11 10 9 9 8 8 3 6 5 5 11 10 8 9 5 4 4 5 7 5 6 7 9 15 19 24 29 31 28 28
15 16 16 11 5 10 20 13 13 15 14 8 5 9 15 15 10 11 6 8 8 8 7 7 8 7 7 6 6 6 4 8 8 9 14 21 17 15 7 7 7 8 6 6 4 3 6 9 10 13 16 15 18 21
Wind_Direction_500mb
306 309 312 313 313 313 311 307 303 292 273 263 257 239 225 223 208 181 176 240 209 240 127 195 188 189 193 230 300 88 239 198 221 271 282 142 257 200 281 288 261 263 253 225 188 94 302 7 84 12 345 329 359 338
308 310 313 313 312 310 306 303 298 288 276 270 262 226 215 211 197 185 186 246 211 228 64 165 151 134 79 338 312 186 319 319 356 290 223 339 221 220 247 274 150 257 299 356 340 56 76 41 71 51 12 20 359 328
310 312 314 313 310 308 303 297 290 280 270 271 256 214 207 202 193 186 188 228 203 216 201 193 177 162 164 280 293 288 176 1 229 294 319 270 345 311 256 221 307 176 282 264 301 138 115 54 67 43 31 24 13 6
310 314 317 319 316 312 306 297 288 276 257 257 237 205 200 194 193 191 188 225 213 252 223 158 168 178 193 276 297 275 293 262 262 245 258 277 256 153 275 13 276 3 149 265 260 147 149 152 67 30 38 34 36 55
314 316 319 321 315 310 305 296 286 275 259 238 210 195 193 190 189 192 205 230 226 255 288 146 165 193 186 162 161 163 186 239 226 219 223 245 5 319 260 281 257 199 231 226 304 67 126 105 127 26 46 48 54 78
313 315 319 320 318 319 307 294 286 270 250 216 188 186 185 182 175 163 207 224 219 236 287 167 116 172 190 173 162 162 174 257 268 287 328 38 350 275 282 266 217 257 251 278 304 184 249 142 206 206 76 99 78 94
312 316 321 321 323 338 336 299 281 248 201 183 173 177 177 178 174 215 327 165 199 202 239 183 165 183 196 190 197 203 239 266 301 346 244 289 170 226 281 267 275 204 223 213 226 225 237 225 227 217 216 191 145 140
310 315 318 317 320 331 344 5 283 199 161 156 162 165 170 179 192 215 249 197 178 191 230 243 130 155 196 211 208 199 254 209 195 317 242 249 141 300 262 257 247 233 213 207 213 223 269 158 236 245 249 225 210 198
309 314 317 313 316 322 333 20 96 132 142 147 148 148 148 163 201 185 206 182 175 219 234 235 234 171 168 229 154 182 265 268 84 265 229 224 83 229 234 239 203 203 207 217 208 214 224 229 238 237 246 237 234 220
303 313 315 302 294 301 266 165 143 145 146 145 139 143 177 187 205 153 143 163 188 216 233 255 233 145 179 180 201 173 204 277 283 133 107 233 227 233 230 226 216 200 200 199 211 218 230 239 237 234 235 242 237 232
300 310 313 295 271 244 226 183 163 154 152 151 164 181 153 165 159 199 181 195 197 210 213 228 247 148 200 194 134 179 191 7 254 154 257 259 256 183 194 196 196 194 196 205 220 257 261 254 251 240 237 231 232 228
294 308 304 311 264 218 204 186 175 168 169 174 157 135 142 191 207 194 191 208 201 214 192 199 190 213 145 216 153 183 229 186 247 116 244 282 216 159 180 188 192 191 197 205 212 222 217 220 224 222 210 216 207 201
288 296 298 310 298 232 198 189 179 172 160 150 128 176 189 217 248 210 196 180 201 204 157 185 173 174 134 214 141 205 212 231 70 231 237 237 128 164 183 187 191 196 199 200 197 191 191 188 183 180 171 172 157 159
263 271 293 292 295 238 197 176 171 166 166 172 150 124 229 216 232 217 220 211 204 169 169 171 171 180 193 172 193 209 205 226 240 234 245 207 160 180 191 196 195 198 200 196 191 185 183 180 174 171 179 181 183 180
253 280 296 290 296 191 167 181 177 185 197 210 204 180 218 219 255 200 215 244 157 172 165 170 175 188 175 167 205 225 172 237 224 236 225 134 149 179 203 205 203 201 199 198 195 192 189 183 175 176 177 181 181 180
247 268 265 297 183 157 136 163 166 162 210 252 224 228 267 234 211 187 208 213 171 169 177 168 177 212 169 219 184 200 222 223 249 187 190 136 154 191 207 204 202 202 201 201 200 200 198 198 200 192 197 209 209 220
227 236 191 141 156 157 181 100 181 206 207 246 227 207 249 289 231 189 181 193 169 177 182 189 184 177 226 216 208 210 219 247 235 150 84 98 168 209 197 190 191 195 201 203 202 202 204 204 204 213 212 218 229 216
209 193 155 119 144 147 153 182 242 247 249 236 256 265 198 255 305 233 249 158 180 198 196 205 237 208 198 226 219 45 281 279 285 286 298 179 191 187 188 183 192 192 201 202 204 205 204 209 208 220 225 212 219 223
217 213 202 207 185 185 207 202 215 253 235 233 246 257 249 239 235 312 199 188 209 230 227 259 222 241 224 247 234 210 235 285 325 171 184 181 178 184 177 188 189 195 200 203 205 210 216 214 221 226 214 200 221 219
203 193 204 205 205 205 231 207 200 257 263 221 231 249 245 233 217 206 209 194 205 220 231 227 236 259 268 310 291 226 245 272 273 285 223 221 212 196 192 189 194 198 200 206 212 218 219 204 216 224 214 211 213 205
192 223 183 183 230 231 277 257 224 251 242 233 223 213 228 219 219 217 206 204 212 222 235 239 247 266 280 289 289 273 277 276 265 268 268 241 209 195 222 217 208 202 201 203 209 206 225 208 208 204 202 212 220 233
209 213 178 202 221 215 248 239 247 274 252 256 203 214 240 213 218 215 214 189 226 234 231 247 247 255 261 248 277 266 270 271 265 263 255 230 200 209 224 215 211 206 203 201 203 200 202 204 200 201 207 214 223 225
191 189 210 203 228 222 257 228 232 228 232 211 205 227 223 236 211 152 208 224 237 238 247 257 268 258 268 280 278 269 266 259 256 255 245 231 229 221 228 245 203 201 213 206 204 203 198 203 202 210 216 216 214 222
181 209 220 205 205 244 212 207 230 242 234 222 238 221 221 197 163 220 239 237 240 239 244 250 266 266 258 241 259 264 248 246 250 236 212 196 192 199 230 205 194 204 222 209 204 207 204 196 199 211 225 212 216 220
193 229 215 242 214 229 235 219 204 209 213 217 212 226 185 158 227 229 235 221 227 214 261 254 251 270 273 272 262 242 267 237 217 185 181 188 236 258 227 231 221 207 214 207 202 204 204 199 198 213 216 212 216 215
214 221 206 206 200 212 234 236 218 205 188 224 216 168 97 200 226 218 304 39 72 222 253 257 278 282 283 251 234 165 199 184 190 200 223 226 232 213 218 226 227 212 215 216 205 213 209 207 207 209 213 208 212 214
247 204 202 235 257 249 259 240 215 172 233 210 275 170 193 219 200 113 108 108 144 147 323 328 323 340 66 93 133 169 148 198 218 194 194 173 236 225 227 239 246 220 234 223 217 217 224 226 214 206 206 205 204 208
250 262 231 210 215 240 240 270 228 181 265 306 301 235 226 132 77 87 84 24 25 2 54 45 37 26 39 72 140 107 60 94 124 138 143 226 227 213 182 199 206 194 196 210 241 234 226 289 206 224 205 197 203 208
229 222 220 246 237 224 235 187 198 173 209 139 56 299 69 71 90 83 1 344 31 176 152 78 67 89 88 59 76 97 103 119 120 208 196 99 282 198 205 203 237 207 238 260 259 237 232 219 217 214 214 204 211 219
226 224 221 216 219 222 223 203 163 233 180 140 132 17 52 71 89 100 70 75 90 95 101 107 114 118 121 118 111 118 143 191 217 235 174 157 157 137 143 167 192 226 253 250 244 225 212 210 208 207 223 218 225 220
215 203 220 241 220 226 231 188 201 230 189 164 147 156 166 145 107 89 89 98 108 108 115 113 81 69 70 123 137 126 87 95 77 85 17 106 168 152 140 63 281 258 320 259 243 242 242 215 220 225 217 215 217 227
207 209 194 220 226 216 220 211 214 220 207 180 167 167 163 136 132 118 99 128 143 104 90 47 75 76 74 83 84 85 130 354 319 279 238 242 240 207 229 280 271 298 323 262 244 223 216 210 210 214 215 220 227 233
197 182 217 258 261 176 188 212 205 228 190 168 217 182 158 129 107 124 103 108 88 76 81 85 99 102 102 82 73 49 19 336 308 260 233 217 212 189 212 274 280 292 281 232 208 208 218 222 222 221 224 224 221 225
Wind_Speed_850mb
41 44 46 48 51 53 51 41 33 27 23 22 25 24 21 18 14 14 4 10 9 23 11 10 4 5 10 10 11 15 15 14 12 6 6 5 10 3 13 20 9 6 8 15 15 8 16 22 5 5 11 14 18 21
42 46 49 51 53 53 42 36 29 24 24 23 23 28 25 21 18 16 7 10 14 11 13 11 8 6 2 4 15 4 16 5 14 4 2 5 7 7 11 11 8 11 10 8 16 7 8 18 21 16 17 14 16 13
42 45 49 53 50 45 40 35 32 26 26 25 21 30 29 24 22 25 12 11 9 19 14 20 21 9 3 3 6 23 5 5 6 11 20 5 3 5 8 10 7 9 5 12 3 15 9 6 12 15 19 21 16 8
40 45 48 47 43 42 43 38 35 32 31 30 21 32 31 25 24 23 15 13 14 17 23 28 17 12 5 2 3 7 7 8 9 12 19 11 6 4 9 8 7 9 7 9 14 14 10 8 7 10 13 15 15 11
40 44 44 41 43 50 43 34 30 30 26 33 26 34 32 27 24 22 19 16 18 11 9 28 19 12 10 6 2 2 3 8 13 17 12 10 7 5 18 9 11 18 13 13 4 10 8 9 3 2 6 9 10 8
41 41 39 38 45 39 33 29 25 23 24 27 34 36 32 26 24 16 13 20 17 13 15 6 15 17 14 9 7 5 3 4 8 11 2 3 3 8 7 7 7 18 5 11 5 6 2 3 3 2 1 2 5 9
37 36 35 33 32 30 27 17 14 12 17 29 38 37 30 29 32 21 4 13 31 22 13 7 13 19 21 16 15 12 5 5 13 3 8 8 9 9 8 13 12 8 9 10 12 10 12 14 13 6 8 5 6 7
32 33 30 26 23 22 19 15 2 10 23 38 38 31 27 23 25 13 11 13 30 20 24 8 6 16 27 26 22 9 17 8 12 10 4 13 9 5 6 17 15 12 13 14 14 13 14 7 9 11 9 12 14 13
28 30 29 20 17 14 10 5 10 24 33 35 31 27 22 19 18 16 12 19 27 15 12 17 13 9 27 32 8 9 8 9 5 10 6 4 6 7 15 17 14 15 14 11 15 12 12 14 16 15 17 16 21 19
23 25 25 17 13 11 4 4 16 26 31 34 36 13 14 23 12 12 7 15 17 23 17 14 30 9 25 24 19 11 4 9 5 6 3 9 13 34 17 15 13 17 16 11 10 11 12 14 15 16 16 18 18 23
17 21 23 18 12 10 7 12 20 26 30 30 9 5 7 24 17 13 13 16 20 13 25 32 28 15 13 12 6 2 6 1 5 5 6 6 9 18 20 23 19 21 20 15 10 9 9 11 10 12 15 15 17 23
16 15 18 19 14 14 16 17 25 30 16 11 7 10 15 14 13 11 11 12 11 18 17 35 28 21 18 12 9 11 7 5 9 9 7 6 10 13 17 23 24 23 22 18 13 9 9 8 8 10 9 9 11 16
15 15 16 15 14 19 25 22 26 24 18 24 6 8 6 5 1 13 20 13 13 15 19 30 26 19 10 22 11 9 8 10 4 7 6 12 27 22 22 23 26 26 23 18 15 12 12 11 9 12 11 10 13 15
17 16 16 16 16 18 26 27 28 30 32 7 11 3 7 9 12 13 17 21 22 25 32 33 34 22 19 15 10 10 8 1 8 9 13 10 27 21 23 25 28 29 26 23 20 16 15 15 16 14 14 17 15 14
17 15 14 16 19 25 29 19 20 30 20 13 16 12 18 32 24 24 24 5 22 22 36 37 27 18 13 8 7 9 10 9 9 10 10 19 22 12 21 27 29 29 29 27 24 21 19 18 16 15 14 14 14 13
15 12 13 10 13 25 12 17 19 14 5 10 17 12 25 23 19 23 22 25 26 30 38 36 11 9 10 8 12 14 9 8 10 9 2 21 15 12 20 26 27 28 30 30 27 23 23 22 19 16 16 15 14 12
15 8 5 11 12 19 23 7 9 9 13 12 14 22 31 15 11 18 31 27 30 31 16 15 14 12 10 10 13 11 19 13 7 4 6 13 10 15 24 28 28 29 32 32 30 26 25 25 20 15 17 16 13 15
19 15 13 11 18 24 16 7 5 8 12 18 18 18 9 11 5 13 12 23 33 35 33 11 2 11 11 18 12 2 9 13 9 8 7 4 8 18 25 27 27 30 34 35 32 28 27 28 22 20 18 21 18 14
17 24 22 20 11 12 10 14 16 10 20 29 23 15 11 12 16 5 12 11 28 18 17 5 5 15 15 18 11 14 15 12 12 6 9 14 23 30 34 27 28 30 33 36 36 34 31 29 25 28 30 32 19 22
16 11 23 31 14 7 8 9 15 13 9 17 26 23 16 18 21 25 21 20 26 24 18 15 18 24 8 11 14 12 18 10 9 16 17 18 22 32 34 32 29 30 32 33 35 35 33 33 28 29 25 25 21 19
11 7 11 18 15 14 8 6 13 15 14 20 15 23 18 20 21 26 29 27 25 30 26 37 38 34 35 23 13 14 22 25 25 30 29 28 28 30 32 32 30 33 33 31 31 32 33 30 26 27 26 24 19 18
16 15 12 16 12 11 13 15 8 9 11 21 11 15 17 23 21 33 33 20 30 31 31 31 33 37 29 22 22 18 22 23 27 27 22 23 28 35 39 36 38 38 34 30 29 30 32 31 29 30 27 23 20 16
16 16 9 14 11 10 12 15 9 13 8 10 13 8 13 16 12 8 14 27 38 39 31 31 19 18 25 32 30 30 29 26 26 28 26 26 26 22 24 35 34 31 31 31 29 31 33 32 29 25 23 21 20 20
19 7 9 12 17 9 12 11 13 15 11 13 9 11 12 17 18 14 16 33 34 27 23 17 24 29 32 29 27 32 31 17 18 16 15 17 18 13 21 27 24 33 37 33 31 31 29 30 28 24 28 25 24 23
6 10 9 10 12 10 9 12 23 13 16 16 14 11 7 6 9 13 11 18 23 9 9 14 15 18 24 25 24 16 10 13 17 21 20 18 11 20 32 36 31 41 40 36 36 35 34 30 27 26 29 28 27 25
8 13 10 15 12 11 9 6 9 16 17 10 9 4 6 7 8 7 2 6 6 2 7 9 10 10 12 12 8 3 4 8 13 13 10 15 17 24 26 28 35 32 30 35 32 38 36 34 33 31 33 30 30 28
8 12 16 14 9 8 13 15 12 3 4 8 6 7 9 10 8 5 7 6 9 2 5 7 8 7 4 3 2 4 4 6 7 8 10 8 9 12 14 17 24 15 27 39 41 35 36 45 47 42 38 34 33 30
13 8 14 18 20 21 13 5 5 2 5 4 7 5 4 2 6 7 5 5 3 3 3 6 6 3 4 3 5 5 3 11 19 18 8 7 8 9 11 10 12 17 9 25 28 17 19 4 22 20 31 31 29 29
17 16 17 15 14 13 12 6 5 5 12 4 2 5 10 13 10 4 3 4 1 1 6 9 12 16 14 12 11 12 15 14 7 7 5 4 10 14 10 8 4 14 18 19 24 33 27 27 29 34 30 30 30 31
20 18 16 16 17 12 13 12 19 30 22 19 7 10 8 7 6 6 5 5 5 9 11 13 12 10 10 10 14 8 5 4 7 7 5 18 15 10 7 5 4 6 8 11 12 19 28 29 31 27 18 29 35 34
8 16 16 13 10 22 16 12 16 13 15 21 17 12 12 11 10 11 12 11 14 13 9 8 9 7 5 6 14 10 1 4 4 2 4 4 7 8 5 1 3 4 7 7 9 12 14 26 32 31 36 38 33 34
16 13 13 11 19 20 15 23 25 24 15 7 7 11 13 11 11 12 7 6 9 9 8 6 11 10 9 9 8 8 3 6 5 5 11 10 8 9 5 4 4 5 7 5 6 7 9 15 19 24 29 31 28 28
15 16 16 11 5 10 20 13 13 15 14 8 5 9 15 15 10 11 6 8 8 8 7 7 8 7 7 6 6 6 4 8 8 9 14 21 17 15 7 7 7 8 6 6 4 3 6 9 10 13 16 15 18 21
Wind_Direction_850mb
306 309 312 313 313 313 311 307 303 292 273 263 257 239 225 223 208 181 176 240 209 240 127 195 188 189 193 230 300 88 239 198 221 271 282 142 257 200 281 288 261 263 253 225 188 94 302 7 84 12 345 329 359 338
308 310 313 313 312 310 306 303 298 288 276 270 262 226 215 211 197 185 186 246 211 228 64 165 151 134 79 338 312 186 319 319 356 290 223 339 221 220 247 274 150 257 299 356 340 56 76 41 71 51 12 20 359 328
310 312 314 313 310 308 303 297 290 280 270 271 256 214 207 202 193 186 188 228 203 216 201 193 177 162 164 280 293 288 176 1 229 294 319 270 345 311 256 221 307 176 282 264 301 138 115 54 67 43 31 24 13 6
310 314 317 319 316 312 306 297 288 276 257 257 237 205 200 194 193 191 188 225 213 252 223 158 168 178 193 276 297 275 293 262 262 245 258 277 256 153 275 13 276 3 149 265 260 147 149 152 67 30 38 34 36 55
314 316 319 321 315 310 305 296 286 275 259 238 210 195 193 190 189 192 205 230 226 255 288 146 165 193 186 162 161 163 186 239 226 219 223 245 5 319 260 281 257 199 231 226 304 67 126 105 127 26 46 48 54 78
313 315 319 320 318 319 307 294 286 270 250 216 188 186 185 182 175 163 207 224 219 236 287 167 116 172 190 173 162 162 174 257 268 287 328 38 350 275 282 266 217 257 251 278 304 184 249 142 206 206 76 99 78 94
312 316 321 321 323 338 336 299 281 248 201 183 173 177 177 178 174 215 327 165 199 202 239 183 165 183 196 190 197 203 239 266 301 346 244 289 170 226 281 267 275 204 223 213 226 225 237 225 227 217 216 191 145 140
310 315 318 317 320 331 344 5 283 199 161 156 162 165 170 179 192 215 249 197 178 191 230 243 130 155 196 211 208 199 254 209 195 317 242 249 141 300 262 257 247 233 213 207 213 223 269 158 236 245 249 225 210 198
309 314 317 313 316 322 333 20 96 132 142 147 148 148 148 163 201 185 206 182 175 219 234 235 234 171 168 229 154 182 265 268 84 265 229 224 83 229 234 239 203 203 207 217 208 214 224 229 238 237 246 237 234 220
303 313 315 302 294 301 266 165 143 145 146 145 139 143 177 187 205 153 143 163 188 216 233 255 233 145 179 180 201 173 204 277 283 133 107 233 227 233 230 226 216 200 200 199 211 218 230 239 237 234 235 242 237 232
300 310 313 295 271 244 226 183 163 154 152 151 164 181 153 165 159 199 181 195 197 210 213 228 247 148 200 194 134 179 191 7 254 154 257 259 256 183 194 196 196 194 196 205 220 257 261 254 251 240 237 231 232 228
294 308 304 311 264 218 204 186 175 168 169 174 157 135 142 191 207 194 191 208 201 214 192 199 190 213 145 216 153 183 229 186 247 116 244 282 216 159 180 188 192 191 197 205 212 222 217 220 224 222 210 216 207 201
288 296 298 310 298 232 198 189 179 172 160 150 128 176 189 217 248 210 196 180 201 204 157 185 173 174 134 214 141 205 212 231 70 231 237 237 128 164 183 187 191 196 199 200 197 191 191 188 183 180 171 172 157 159
263 271 293 292 295 238 197 176 171 166 166 172 150 124 229 216 232 217 220 211 204 169 169 171 171 180 193 172 193 209 205 226 240 234 245 207 160 180 191 196 195 198 200 196 191 185 183 180 174 171 179 181 183 180
253 280 296 290 296 191 167 181 177 185 197 210 204 180 218 219 255 200 215 244 157 172 165 170 175 188 175 167 205 225 172 237 224 236 225 134 149 179 203 205 203 201 199 198 195 192 189 183 175 176 177 181 181 180
247 268 265 297 183 157 136 163 166 162 210 252 224 228 267 234 211 187 208 213 171 169 177 168 177 212 169 219 184 200 222 223 249 187 190 136 154 191 207 204 202 202 201 201 200 200 198 198 200 192 197 209 209 220
227 236 191 141 156 157 181 100 181 206 207 246 227 207 249 289 231 189 181 193 169 177 182 189 184 177 226 216 208 210 219 247 235 150 84 98 168 209 197 190 191 195 201 203 202 202 204 204 204 213 212 218 229 216
209 193 155 119 144 147 153 182 242 247 249 236 256 265 198 255 305 233 249 158 180 198 196 205 237 208 198 226 219 45 281 279 285 286 298 179 191 187 188 183 192 192 201 202 204 205 204 209 208 220 225 212 219 223
217 213 202 207 185 185 207 202 215 253 235 233 246 257 249 239 235 312 199 188 209 230 227 259 222 241 224 247 234 210 235 285 325 171 184 181 178 184 177 188 189 195 200 203 205 210 216 214 221 226 214 200 221 219
203 193 204 205 205 205 231 207 200 257 263 221 231 249 245 233 217 206 209 194 205 220 231 227 236 259 268 310 291 226 245 272 273 285 223 221 212 196 192 189 194 198 200 206 212 218 219 204 216 224 214 211 213 205
192 223 183 183 230 231 277 257 224 251 242 233 223 213 228 219 219 217 206 204 212 222 235 239 247 266 280 289 289 273 277 276 265 268 268 241 209 195 222 217 208 202 201 203 209 206 225 208 208 204 202 212 220 233
209 213 178 202 221 215 248 239 247 274 252 256 203 214 240 213 218 215 214 189 226 234 231 247 247 255 261 248 277 266 270 271 265 263 255 230 200 209 224 215 211 206 203 201 203 200 202 204 200 201 207 214 223 225
191 189 210 203 228 222 257 228 232 228 232 211 205 227 223 236 211 152 208 224 237 238 247 257 268 258 268 280 278 269 266 259 256 255 245 231 229 221 228 245 203 201 213 206 204 203 198 203 202 210 216 216 214 222
181 209 220 205 205 244 212 207 230 242 234 222 238 221 221 197 163 220 239 237 240 239 244 250 266 266 258 241 259 264 248 246 250 236 212 196 192 199 230 205 194 204 222 209 204 207 204 196 199 211 225 212 216 220
193 229 215 242 214 229 235 219 204 209 213 217 212 226 185 158 227 229 235 221 227 214 261 254 251 270 273 272 262 242 267 237 217 185 181 188 236 258 227 231 221 207 214 207 202 204 204 199 198 213 216 212 216 215
214 221 206 206 200 212 234 236 218 205 188 224 216 168 97 200 226 218 304 39 72 222 253 257 278 282 283 251 234 165 199 184 190 200 223 226 232 213 218 226 227 212 215 216 205 213 209 207 207 209 213 208 212 214
247 204 202 235 257 249 259 240 215 172 233 210 275 170 193 219 200 113 108 108 144 147 323 328 323 340 66 93 133 169 148 198 218 194 194 173 236 225 227 239 246 220 234 223 217 217 224 226 214 206 206 205 204 208
250 262 231 210 215 240 240 270 228 181 265 306 301 235 226 132 77 87 84 24 25 2 54 45 37 26 39 72 140 107 60 94 124 138 143 226 227 213 182 199 206 194 196 210 241 234 226 289 206 224 205 197 203 208
229 222 220 246 237 224 235 187 198 173 209 139 56 299 69 71 90 83 1 344 31 176 152 78 67 89 88 59 76 97 103 119 120 208 196 99 282 198 205 203 237 207 238 260 259 237 232 219 217 214 214 204 211 219
226 224 221 216 219 222 223 203 163 233 180 140 132 17 52 71 89 100 70 75 90 95 101 107 114 118 121 118 111 118 143 191 217 235 174 157 157 137 143 167 192 226 253 250 244 225 212 210 208 207 223 218 225 220
215 203 220 241 220 226 231 188 201 230 189 164 147 156 166 145 107 89 89 98 108 108 115 113 81 69 70 123 137 126 87 95 77 85 17 106 168 152 140 63 281 258 320 259 243 242 242 215 220 225 217 215 217 227
207 209 194 220 226 216 220 211 214 220 207 180 167 167 163 136 132 118 99 128 143 104 90 47 75 76 74 83 84 85 130 354 319 279 238 242 240 207 229 280 271 298 323 262 244 223 216 210 210 214 215 220 227 233
197 182 217 258 261 176 188 212 205 228 190 168 217 182 158 129 107 124 103 108 88 76 81 85 99 102 102 82 73 49 19 336 308 260 233 217 212 189 212 274 280 292 281 232 208 208 218 222 222 221 224 224 221 225